Lapse_Rate
4.3 5.5 6.7 6.5 6.6 6.5 6.5 6.1 5.9 5.9 6.0 6.5 6.1 6.2 6.8 6.7 6.4 6.4 6.4 6.7 6.8 6.8 7.4 7.1 6.7 6.8 6.6 6.5 6.5 6.5 6.8 6.6 6.5 6.4 6.4 6.5 6.7 6.6 6.7 6.5 6.2 6.7 6.5
4.9 6.0 6.4 6.3 6.0 6.6 6.3 6.0 5.9 6.2 6.5 6.1 5.9 6.2 6.4 6.4 6.4 6.5 6.5 6.9 7.0 7.2 7.2 7.0 7.0 6.7 6.8 6.7 6.5 6.4 6.7 6.7 6.7 6.6 6.7 6.8 6.7 6.7 6.4 6.4 6.4 6.6 6.4
4.7 5.7 7.4 6.8 6.6 6.7 6.4 6.1 6.1 5.9 5.7 5.8 5.9 6.2 6.4 6.4 6.5 6.6 6.7 6.9 7.3 7.0 6.7 6.9 6.7 6.7 6.7 6.5 6.5 6.4 6.5 6.4 6.5 6.6 6.5 6.2 6.6 6.7 6.3 6.5 6.2 6.1 6.0
4.1 4.7 7.0 6.4 6.4 6.1 6.1 6.2 6.2 6.1 6.0 6.3 6.2 6.2 6.2 6.3 6.4 6.9 6.8 6.9 7.2 6.7 6.9 6.7 7.0 6.6 6.7 6.7 6.5 6.5 6.4 6.2 6.0 5.5 5.8 6.2 7.0 6.7 6.6 6.5 6.2 6.4 6.5
3.5 4.4 5.2 5.5 5.7 5.7 5.8 6.1 6.2 6.0 6.3 6.3 6.4 6.6 6.6 6.5 6.9 6.5 6.4 6.7 7.3 6.9 7.1 6.8 6.7 7.1 6.8 6.8 6.5 6.6 6.2 5.7 5.5 5.0 5.0 5.6 5.9 6.7 6.3 6.2 6.2 6.2 6.2
3.1 4.3 5.5 5.8 5.9 5.9 5.8 6.0 6.2 6.3 6.4 6.4 6.4 6.4 6.9 6.7 6.7 6.9 7.2 7.3 6.9 6.9 6.7 6.7 6.7 6.7 6.9 6.9 6.4 6.2 5.8 5.4 4.9 4.5 4.8 5.5 5.7 6.8 6.4 6.4 6.6 6.5 6.3
2.7 4.3 5.9 6.3 6.5 6.6 6.2 6.2 6.2 6.2 6.4 6.3 6.3 6.6 6.7 7.1 6.8 6.6 6.7 7.0 6.9 6.6 6.8 6.6 6.6 6.9 7.0 6.7 6.3 5.8 5.2 5.0 4.3 4.3 4.5 5.0 6.0 6.4 6.3 6.3 6.3 6.2 6.3
3.0 4.4 5.5 6.7 6.7 6.6 6.4 6.3 6.2 6.5 6.4 6.4 6.7 6.6 6.7 6.9 6.8 6.7 6.9 7.1 6.7 6.6 6.8 6.7 6.7 6.6 6.7 6.8 6.4 5.8 5.3 4.9 4.0 4.0 4.3 4.5 5.5 5.9 5.7 5.4 5.5 5.7 5.8
4.3 4.4 5.4 6.4 6.6 6.7 6.6 6.4 6.2 6.3 6.4 6.2 6.4 6.2 6.4 6.8 7.2 6.8 6.6 6.6 6.7 6.9 7.2 6.9 6.8 6.6 6.8 6.7 6.5 6.2 5.8 4.5 3.4 3.6 4.3 4.2 5.0 5.2 5.0 5.0 5.1 5.1 4.9
4.0 4.0 4.3 5.2 5.8 5.9 6.2 6.4 6.2 6.0 6.2 6.4 6.6 6.9 7.1 7.2 6.7 5.9 5.6 6.5 6.7 7.1 7.1 6.9 6.8 6.5 6.5 6.5 6.4 6.2 5.7 4.2 3.1 3.1 3.3 4.0 4.8 5.0 4.8 4.8 4.7 4.5 4.8
4.3 3.7 3.8 4.1 4.4 4.6 5.2 6.3 6.2 6.2 6.4 6.5 6.4 6.9 5.1 4.7 4.8 5.0 5.9 6.2 6.2 6.5 7.0 7.0 7.1 6.9 6.3 6.1 6.4 6.4 5.1 3.4 3.1 2.9 3.0 4.1 4.6 4.8 4.8 4.7 4.7 4.8 5.1
3.9 3.5 3.3 3.6 4.0 4.6 5.9 5.1 5.2 5.8 5.0 5.2 4.9 4.7 4.4 4.2 4.3 4.8 5.1 5.1 5.2 4.7 5.4 5.4 5.4 5.6 5.5 5.2 5.1 4.8 4.2 3.5 2.9 2.6 2.8 3.8 4.5 5.0 4.9 4.9 4.8 5.0 5.2
3.6 3.7 2.9 3.0 3.5 3.9 4.2 4.0 4.2 4.3 4.4 4.3 4.6 4.3 4.1 3.7 3.9 3.5 3.5 3.5 3.7 4.0 3.9 4.1 4.7 4.5 4.5 4.0 4.0 4.0 3.6 2.9 2.5 2.6 3.2 3.8 4.5 5.0 5.0 5.0 5.0 5.1 5.4
3.3 3.5 2.9 2.8 3.0 3.5 3.8 3.5 3.5 3.7 3.8 3.5 4.0 4.2 3.9 3.5 3.0 2.5 2.6 2.7 3.0 3.5 3.4 3.2 3.5 3.6 3.5 3.4 3.3 3.7 3.5 2.7 2.1 2.5 2.8 3.8 4.2 4.7 5.2 5.4 5.2 5.4 5.5
3.5 3.6 2.8 2.5 2.7 3.3 3.5 3.6 3.6 3.7 3.9 3.8 3.7 4.0 4.0 3.5 2.8 2.7 2.4 2.8 2.8 3.1 3.1 3.2 3.0 3.0 3.2 3.3 3.6 3.5 3.5 2.9 2.7 2.7 2.3 3.0 3.9 4.3 5.0 5.4 5.4 5.3 5.4
3.8 3.3 3.1 2.7 2.8 3.3 3.5 3.6 3.5 3.5 3.7 3.7 4.0 4.2 4.0 3.8 3.1 2.5 2.5 2.8 2.8 2.7 2.8 2.7 2.6 2.7 3.1 3.3 3.6 3.7 3.6 3.5 3.0 2.3 2.3 2.8 3.7 4.2 4.6 4.9 5.1 5.2 5.2
3.5 3.5 3.3 3.3 3.6 3.5 3.3 3.3 3.3 3.6 3.6 3.5 3.5 4.0 4.0 4.1 3.5 2.8 2.3 2.6 2.8 2.8 2.9 2.9 2.8 2.7 3.7 4.1 3.9 3.7 3.7 3.6 3.5 3.1 2.7 2.7 3.1 3.8 4.4 4.5 4.7 4.9 5.2
3.8 3.7 3.7 5.7 4.1 3.7 3.2 3.2 3.3 3.7 3.6 3.7 3.5 3.9 3.8 4.0 3.9 3.0 2.5 2.3 3.0 2.2 2.5 2.5 2.4 3.3 3.5 3.5 3.9 3.8 3.6 3.7 3.7 3.5 3.5 3.4 3.5 3.9 4.1 4.4 4.7 4.9 4.7
3.8 3.6 3.7 4.4 4.0 3.7 3.5 3.5 3.5 4.1 3.6 3.9 3.8 3.7 4.0 4.2 3.7 3.2 3.0 2.8 2.8 2.7 2.3 2.7 2.5 2.7 3.6 3.7 4.3 3.9 3.5 3.6 3.8 4.7 3.9 4.0 3.9 3.9 3.9 4.6 4.8 4.7 4.4
3.5 3.5 3.6 3.5 3.2 3.5 2.8 2.3 2.6 3.2 3.2 3.7 3.8 3.7 4.1 4.3 4.1 3.3 3.0 2.7 2.7 2.6 2.8 2.7 2.8 2.5 2.9 3.2 4.8 4.9 3.6 3.5 3.2 3.2 3.9 4.1 4.1 4.5 4.6 4.6 4.6 4.5 4.4
3.8 3.7 3.3 3.2 2.5 2.7 2.5 2.6 2.7 3.3 3.5 3.5 3.9 4.2 4.3 4.2 4.2 3.6 2.8 3.0 3.0 2.9 2.7 3.2 2.9 3.2 2.9 2.0 3.4 3.4 3.1 2.6 2.9 2.4 2.7 3.2 3.8 4.4 4.3 4.5 4.1 4.3 3.8
4.2 3.9 3.6 3.4 2.3 2.9 2.7 2.2 2.6 2.8 3.2 3.9 4.0 4.3 4.8 4.3 4.2 4.1 3.1 2.7 3.0 2.7 3.1 3.3 2.9 3.2 2.6 1.8 3.0 2.5 3.3 3.4 2.0 1.8 1.6 2.9 3.1 3.1 3.8 3.9 3.9 4.0 3.7
4.5 4.0 3.8 3.0 2.5 2.9 3.0 2.3 2.3 2.5 3.0 3.6 3.8 3.7 4.3 4.9 4.4 4.6 3.7 3.1 2.7 2.0 3.0 2.8 3.2 3.1 3.0 2.2 1.5 3.2 3.1 4.5 2.6 2.0 2.0 1.1 1.4 1.7 2.0 1.8 2.5 2.9 2.5
4.5 4.1 3.5 3.1 2.8 3.1 2.7 3.1 3.5 3.3 3.8 3.0 3.5 3.1 3.6 4.6 4.8 4.4 4.0 3.4 2.6 1.9 2.9 2.9 2.9 2.9 2.6 3.3 2.6 2.0 1.3 2.5 4.0 4.3 2.5 2.0 1.8 2.5 1.5 1.2 1.9 1.9 1.9
4.6 3.7 3.5 2.8 2.8 3.2 2.8 3.1 2.8 3.3 3.4 2.9 3.0 3.4 3.5 3.7 4.5 4.6 4.2 3.5 3.0 2.7 2.8 3.6 3.4 3.2 2.9 2.6 2.0 1.8 2.0 1.3 1.3 2.6 4.3 3.0 2.7 2.5 1.8 1.3 1.2 1.3 2.0
4.4 4.0 3.5 2.9 2.9 2.8 2.8 2.8 3.1 3.1 3.0 3.1 3.1 3.3 3.1 3.1 3.6 4.1 4.2 3.8 3.5 3.1 3.1 3.4 3.4 3.4 3.2 2.6 2.1 1.6 2.1 2.6 2.4 2.5 2.9 2.0 2.0 1.7 1.2 1.1 1.2 1.3 2.2
Wind_Speed
3 3 1 1 4 5 11 11 13 14 15 15 17 16 16 14 14 14 13 14 14 14 15 17 16 15 15 14 13 12 15 14 14 13 13 14 15 15 16 15 13 13 14
9 7 9 3 2 3 10 12 13 13 15 17 17 14 15 13 13 13 13 15 14 14 15 16 16 15 16 16 15 13 12 12 14 14 15 15 16 16 17 14 13 14 15
8 10 14 14 12 9 12 12 11 13 13 14 15 12 12 12 12 13 14 14 13 13 14 15 14 13 12 14 15 15 15 15 16 16 14 13 13 15 15 15 14 14 13
11 8 8 8 8 11 12 12 10 14 13 13 13 11 11 11 12 13 13 13 14 13 13 14 11 11 10 11 15 16 15 16 16 14 13 11 14 16 15 15 14 13 12
9 10 8 7 8 9 10 10 10 12 12 12 12 11 11 11 12 13 13 12 13 12 12 13 12 13 16 15 16 15 15 15 15 13 13 14 12 14 14 13 13 12 12
8 9 7 7 9 9 9 10 10 10 11 11 11 10 12 11 10 12 12 13 13 11 11 13 13 14 15 17 16 15 13 14 13 12 11 10 9 13 13 12 11 11 10
6 8 9 9 10 12 11 10 11 11 10 11 10 11 10 9 9 8 9 11 12 11 11 12 14 14 15 15 13 11 12 12 11 11 10 11 11 12 12 12 11 9 10
6 9 8 9 10 12 11 11 11 12 11 10 9 8 8 7 9 10 11 11 12 11 10 12 12 15 13 10 11 12 11 10 9 10 9 7 8 9 9 10 9 9 9
6 8 6 9 9 11 10 11 12 11 10 10 9 8 7 7 9 11 11 11 11 11 10 10 12 13 11 8 9 10 9 9 8 6 6 5 7 7 8 8 8 7 6
4 6 5 6 7 8 9 10 10 10 9 9 8 9 9 10 10 12 10 11 11 10 10 10 10 9 10 11 8 8 8 8 6 4 3 4 5 6 6 6 5 5 4
4 4 5 5 6 6 7 10 11 10 9 9 7 9 9 9 8 8 10 11 12 11 11 10 8 7 7 6 5 4 6 5 4 3 2 3 3 4 4 4 3 2 2
4 4 4 6 6 7 7 8 7 8 8 8 7 7 7 6 6 8 11 10 12 10 10 10 9 8 7 5 3 1 3 6 4 4 3 3 3 3 3 2 1 0 1
4 3 5 5 7 4 8 8 6 6 7 6 6 6 4 4 6 6 7 8 9 8 8 6 7 6 6 6 4 1 4 6 5 4 4 5 5 3 2 1 2 2 3
5 4 5 6 6 3 6 7 7 6 5 5 4 3 3 3 5 6 6 5 5 5 5 3 3 4 5 5 4 3 4 7 5 4 4 6 6 3 3 3 3 4 5
6 5 5 6 5 5 6 6 5 4 5 5 4 3 3 3 3 3 4 4 2 3 2 2 3 4 6 7 6 3 6 6 5 4 4 6 6 6 5 4 4 6 7
7 6 6 6 7 8 5 6 5 7 6 6 6 5 4 6 4 3 1 1 1 2 3 2 1 1 3 5 5 2 4 4 3 4 4 5 7 7 6 6 7 7 7
5 7 7 6 8 7 6 8 7 8 6 5 6 6 7 6 5 6 3 2 1 3 2 1 1 1 1 3 3 3 4 2 1 3 4 5 5 7 9 8 9 10 9
6 8 7 8 7 6 6 7 7 8 8 6 5 3 9 7 7 5 2 2 3 2 2 3 2 2 2 2 0 0 2 2 3 3 4 5 5 5 6 7 9 9 8
8 7 7 7 8 7 7 7 7 6 6 5 4 5 6 7 6 4 1 1 4 5 5 2 2 1 1 1 2 1 1 1 3 3 4 6 6 5 6 8 6 7 7
6 6 6 5 7 6 3 3 4 4 3 5 4 3 4 5 5 3 3 3 4 3 3 2 2 2 2 1 1 2 0 0 2 3 4 6 6 6 8 10 11 10 9
6 7 6 7 6 7 3 3 2 3 2 1 1 5 8 6 5 5 2 2 2 3 3 3 2 3 3 2 2 2 2 2 2 3 4 3 5 6 6 9 13 13 11
8 7 6 7 7 6 4 2 3 3 2 2 3 4 7 7 5 3 3 3 2 2 1 3 3 1 2 4 2 2 3 3 3 4 3 3 2 4 5 8 11 13 11
11 10 9 8 8 6 5 4 3 4 3 2 1 1 2 4 5 7 7 4 2 2 2 2 3 3 2 3 5 2 1 1 2 3 4 4 3 2 4 5 8 7 10
12 8 7 7 7 5 7 5 6 4 4 3 3 3 3 3 5 6 5 5 3 3 2 1 1 2 2 1 1 4 3 1 2 2 1 2 3 3 3 5 6 7 6
10 10 9 7 7 5 6 6 5 4 2 1 2 3 3 2 3 5 7 7 5 3 1 0 2 3 2 2 1 1 1 2 1 2 2 3 2 3 3 4 4 5 5
7 9 8 9 6 6 6 6 7 8 6 4 3 3 3 1 2 2 5 6 3 2 1 1 0 3 3 3 2 2 1 2 1 1 2 2 2 3 3 4 5 5 9
Wind_Direction
188 145 146 71 50 88 99 98 91 92 98 101 100 105 99 102 98 100 100 100 93 87 86 89 90 90 84 83 85 104 107 111 108 102 98 95 100 99 97 89 90 94 93
134 161 146 119 63 105 103 98 98 104 107 107 103 103 101 99 102 103 98 97 89 90 91 90 88 86 84 85 84 86 100 105 98 94 91 96 96 95 93 97 88 87 86
123 170 156 160 164 129 102 96 104 103 103 106 112 106 109 107 103 99 94 91 97 91 95 90 89 88 91 82 85 88 87 87 88 87 82 74 90 100 102 99 97 95 93
134 144 137 124 111 99 104 108 104 107 111 114 115 107 104 109 108 94 93 87 92 95 95 92 86 88 102 95 92 82 79 81 82 75 67 72 87 88 89 91 90 91 88
119 136 143 126 115 105 104 107 115 115 109 113 107 109 106 104 99 102 98 101 90 92 85 77 71 74 96 93 93 88 87 86 83 77 75 73 72 85 84 84 85 88 90
122 135 145 146 133 127 127 126 123 122 116 114 114 115 106 104 93 95 91 86 89 90 86 71 61 56 90 90 90 86 87 86 82 75 70 79 87 86 84 84 91 84 89
124 153 162 162 157 145 135 134 130 121 113 117 122 115 105 103 94 88 98 91 91 87 81 73 61 59 105 94 90 93 90 86 84 80 72 73 84 89 87 86 87 84 88
136 150 164 149 146 140 140 139 134 128 125 123 115 106 107 100 93 80 90 89 86 88 83 75 68 68 102 100 95 94 100 95 84 79 77 77 88 93 95 82 77 75 73
125 135 150 144 147 143 144 138 137 136 134 122 111 110 116 116 102 82 79 82 87 88 83 77 68 71 74 94 98 92 102 106 92 90 90 83 88 90 83 79 74 71 73
108 119 130 132 133 130 142 140 138 137 135 120 118 115 115 96 90 82 77 83 85 88 87 77 69 72 71 71 114 105 115 110 112 106 106 100 93 93 90 87 88 88 72
131 133 137 129 128 138 149 150 148 144 139 129 123 105 82 79 81 87 91 87 82 80 81 81 72 68 73 73 92 121 139 135 122 125 130 128 119 115 106 109 100 72 39
159 163 150 145 148 164 149 124 125 136 117 108 96 97 96 91 96 89 83 73 61 54 52 54 44 41 34 25 17 109 173 159 146 165 183 184 181 155 150 134 148 353 333
173 175 158 155 164 172 119 116 106 107 110 106 116 121 99 92 87 68 62 55 48 43 47 44 37 15 338 315 301 258 186 175 171 174 193 214 216 202 201 196 257 286 307
170 189 166 170 163 159 128 122 126 125 137 145 155 133 113 85 66 46 30 36 52 51 43 28 14 354 336 330 303 225 157 170 176 182 213 227 236 244 249 247 274 295 298
170 194 181 172 171 164 142 124 128 137 165 167 190 236 204 118 91 54 44 68 71 24 1 353 4 359 357 11 14 170 157 169 172 193 224 238 242 255 268 276 289 290 301
171 187 176 186 177 169 158 156 167 175 183 190 204 207 169 153 155 200 259 317 9 357 338 343 333 285 6 8 15 83 190 180 188 206 215 236 246 253 261 269 276 280 285
186 165 177 188 176 181 174 180 175 179 192 211 231 215 187 170 189 218 240 288 232 33 9 18 344 307 33 25 21 79 122 148 202 239 236 244 246 250 258 267 276 289 301
168 177 172 187 184 184 172 185 183 184 188 210 219 192 180 197 192 196 213 231 218 280 30 43 39 33 61 103 72 155 161 181 232 246 250 254 267 276 281 283 284 286 293
179 175 183 191 177 188 186 184 190 175 181 204 178 181 171 177 188 227 192 359 354 30 37 18 16 58 104 139 216 158 70 282 263 271 273 274 273 284 317 312 309 287 270
162 170 172 184 164 161 137 131 129 141 160 219 188 156 186 192 191 201 142 58 30 30 27 43 55 50 57 216 318 45 144 216 321 304 316 317 297 292 286 284 282 276 271
153 157 174 156 155 144 142 146 121 163 145 174 231 166 183 213 203 167 146 116 42 53 6 5 73 51 25 16 54 36 50 22 303 314 304 327 320 309 289 278 273 269 269
173 174 183 167 169 162 156 151 142 145 138 124 185 185 171 205 189 161 179 155 168 77 31 45 63 92 32 22 105 80 21 347 338 15 17 341 332 327 299 290 279 270 271
186 183 192 174 181 172 148 117 88 78 71 110 159 191 123 176 193 165 166 166 182 168 105 50 77 101 120 45 52 120 117 203 313 348 9 17 358 316 302 295 290 335 0
197 176 184 179 180 178 163 147 154 160 155 197 171 172 168 176 174 184 165 153 192 184 138 55 31 86 106 95 59 61 55 142 164 314 328 330 347 336 320 314 326 359 348
179 178 183 176 174 178 183 168 151 159 157 144 148 177 183 229 204 199 180 176 183 158 149 173 118 89 78 109 109 146 98 43 60 139 286 333 312 271 295 293 329 331 321
173 170 177 178 189 182 185 178 167 174 171 165 184 199 207 235 276 284 198 187 190 165 193 220 57 91 101 104 116 108 124 175 171 100 106 255 279 310 294 295 291 290 306